Starlink 30862

operational
NORAD ID: 59032 Int'l Des: 2024-038 Owner: SPXS Country: US Constellation: starlink
LEOCIRCULAR

Über Starlink 30862

Beschreibung wird geladen...

Live-Position

3D-Globus wird geladen...

Nächste Überflüge

Höhenverlauf

Altitude vs Time

uPlot chart will show altitude changes over time

Zweizeiliger Elementsatz

1 59032U 24038K 25352.60787393 -.00006277 00000-0 -21870-3 0 9991
2 59032 43.0016 114.0771 0001470 272.4521 87.6163 15.27588284102375
Epoch: 18. Dez. 2025 • Age: 11 hours

Aktueller Status

Höhe 487.2 km
Geschwindigkeit 7.63 km/s
Subsatellitenpunkt 42.96°N, 90.48°E
Startdatum 25. Feb. 2024
Alter 1.8 years
Typ internet

Technische Details

Klassifizierung Payload
Masse 730.00 kg
Trockenmasse 700.00 kg
Gesamtmasse 730.00 kg
Länge 0.30 m
Durchmesser 4.10 m
Spannweite 29.00 m
Form Box + pan
Hersteller SPXS
Bus-Typ Starlink V2M
Phasenstatus In Orbit
Besitzer/Staat SPXS/US

Große Konstellationen

Loading constellations...